FCC INTERNATIONAL BUREAU
Page Top Banner INTERNATIONAL BUREAU
FCC INTERNATIONAL SECTION 214 PENDING APPLICATIONS LIST BY FILE NUMBER
REPORT WR028 - Thu Apr 27 14:38:19 US/Eastern 2017

File Number Application Type Name Date Filed Status Status Date
ITC-214-20110901-00289214China Mobile International (USA) Inc.09/01/2011Unblocked01/19/2016
ITC-214-20120629-00171214CITIC Telecom International CPC (USA) LLC06/29/2012Unblocked01/19/2016
ITC-214-20120806-00200214Kinetic Communication LLC08/06/2012Unblocked03/24/2016
ITC-214-20130718-00195214VTA Telecom Corporation07/17/2013Action Taken Public Notice02/06/2014
ITC-214-20140731-00226214Glory Communication Americas Co., LTD.07/16/2014Unblocked09/23/2016
ITC-214-20150324-00077214Snail Mobile LLC03/24/2015Unblocked12/14/2016
ITC-214-20150417-00095214GW-Mobile, Inc.04/17/2015Unblocked10/21/2016
ITC-214-20150615-00314214Hunter Communications Inc04/11/2017Accepted for Filing Public Notice04/21/2017
ITC-214-20151210-00301214Ignition Wireless, LLC12/10/2015Unblocked12/02/2016
ITC-214-20151230-00313214Bharti Airtel (USA) Ltd.12/30/2015Unblocked12/09/2016
ITC-214-20160329-00127214I-New USA, Inc.03/29/2016Accepted for Filing Public Notice04/22/2016
ITC-214-20160330-00132214QSR Group LLC03/30/2016Accepted for Filing Public Notice04/22/2016
ITC-214-20160404-00137214Swisstok Telnet USA Inc04/04/2016Unblocked11/07/2016
ITC-214-20160509-00151214Master Call Connections04/26/2016Unblocked04/20/2017
ITC-214-20160615-00170214Cloudminds Technology06/15/2016Accepted for Filing Public Notice07/15/2016
ITC-214-20160628-00179214Arycom USA LLC06/28/2016Accepted for Filing Public Notice08/12/2016
ITC-214-20160715-00188214TX Voice Wholesale, Inc.07/15/2016Accepted for Filing Public Notice08/12/2016
ITC-214-20160719-00191214OKROUTE, INC.07/19/2016Accepted for Filing Public Notice08/26/2016
ITC-214-20160729-00227214STS Media, Inc.07/29/2016Blocked04/19/2017
ITC-214-20160815-00235214Platcomm Corp.08/15/2016Unblocked01/06/2017
ITC-214-20160819-00252214Marcatel Telecommunications, LLC08/19/2016Unblocked02/17/2017
ITC-214-20161109-00292214Lexitel Worldwide Telesync Solutions Corporation11/09/2016Accepted for Filing Public Notice12/16/2016
ITC-214-20161121-00334214Limecom Inc.11/21/2016Accepted for Filing Public Notice12/16/2016
ITC-214-20161129-00336214ClearNuvo Technology Inc.11/29/2016Accepted for Filing Public Notice12/30/2016
ITC-214-20161201-00337214ARIA TEL CORP.10/14/2016Accepted for Filing Public Notice12/30/2016
ITC-214-20161219-00353214TvF Cloud, Inc.12/19/2016Accepted for Filing Public Notice01/13/2017
ITC-214-20161230-00382214QBR Telecom Inc.12/30/2016Accepted for Filing Public Notice03/31/2017
ITC-214-20170207-00017214Wing Tel Inc02/07/2017Accepted for Filing Public Notice03/24/2017
ITC-214-20170227-00054214MATCHCOM COMMUNICATIONS, LLC02/27/2017System Entry04/06/2017
ITC-214-20170323-00053214Liberty Cablevision of Puerto Rico, LLC03/23/2017Accepted for Filing Public Notice04/21/2017
ITC-214-20170330-00062214SPACTRON LLC03/23/2017System Entry04/13/2017
ITC-AMD-20170111-00003AmendmentLexitel Worldwide Telesync Solutions Corporation01/11/2017Accepted for Filing Public Notice01/27/2017
ITC-AMD-20170302-00026AmendmentSnail Mobile LLC03/02/2017Filed - fee not required03/02/2017
ITC-ASG-20150121-00016AssignmentCOLT Telecom GmbH01/21/2015Blocked10/21/2016
ITC-ASG-20150812-00199AssignmentGlobal Freedom Telecom LLC08/11/2015System Entry08/13/2015
ITC-ASG-20160609-00166AssignmentEtelix.com USA, LLC06/09/2016Accepted for Filing Public Notice12/02/2016
ITC-ASG-20160901-00256Assignment18C, LLC09/01/2016Blocked04/19/2017
ITC-ASG-20170301-00024AssignmentPRWireless, Inc.03/01/2017System Entry03/02/2017
ITC-ASG-20170313-00034AssignmentFavorite Communications Ltd.03/13/2017Blocked03/16/2017
ITC-ASG-20170413-00065AssignmentLatin American Nautilus Limited04/13/2017System Entry04/20/2017
ITC-T/C-20151008-00236Transfer of ControlNorthwest Missouri Cellular Limited Partnership10/08/2015Unblocked10/28/2015
ITC-T/C-20160316-00123Transfer of ControlRiva FZC03/16/2016System Entry03/22/2016
ITC-T/C-20161212-00344Transfer of ControlCenturyLink, Inc.12/12/2016System Entry12/14/2016
ITC-T/C-20161212-00345Transfer of ControlCenturyLink, Inc.12/12/2016System Entry12/14/2016
ITC-T/C-20161212-00346Transfer of ControlCenturyLink, Inc.12/12/2016System Entry12/14/2016
ITC-T/C-20161212-00347Transfer of ControlCenturyLink, Inc.12/12/2016System Entry12/14/2016
ITC-T/C-20161212-00348Transfer of ControlCenturyLink, Inc.12/12/2016System Entry12/14/2016
ITC-T/C-20161213-00343Transfer of ControlCenturyLink, Inc.12/13/2016System Entry12/14/2016
ITC-T/C-20161220-00357Transfer of ControlConsolidated Communications Holdings, Inc.12/20/2016System Entry12/22/2016
ITC-T/C-20161220-00358Transfer of ControlConsolidated Communications Holdings, Inc.12/20/2016System Entry12/22/2016
File Number Application Type Name Date Filed Status Status Date
ITC-T/C-20161220-00359Transfer of ControlConsolidated Communications Holdings, Inc.12/20/2016System Entry12/22/2016
ITC-T/C-20161220-00360Transfer of ControlConsolidated Communications Holdings, Inc.12/20/2016System Entry12/22/2016
ITC-T/C-20161220-00361Transfer of ControlConsolidated Communications Holdings, Inc.12/20/2016System Entry12/22/2016
ITC-T/C-20161220-00362Transfer of ControlConsolidated Communications Holdings, Inc.12/20/2016System Entry12/22/2016
ITC-T/C-20161220-00363Transfer of ControlConsolidated Communications Holdings, Inc.12/20/2016System Entry12/22/2016
ITC-T/C-20161220-00364Transfer of ControlConsolidated Communications Holdings, Inc.12/20/2016System Entry12/22/2016
ITC-T/C-20161220-00365Transfer of ControlConsolidated Communications Holdings, Inc.12/20/2016System Entry12/22/2016
ITC-T/C-20161220-00366Transfer of ControlConsolidated Communications Holdings, Inc.12/20/2016System Entry12/22/2016
ITC-T/C-20161220-00367Transfer of ControlConsolidated Communications Holdings, Inc.12/20/2016System Entry12/22/2016
ITC-T/C-20161220-00368Transfer of ControlConsolidated Communications Holdings, Inc.12/20/2016System Entry12/22/2016
ITC-T/C-20161220-00369Transfer of ControlConsolidated Communications Holdings, Inc.12/20/2016System Entry12/22/2016
ITC-T/C-20161220-00370Transfer of ControlConsolidated Communications Holdings, Inc.12/20/2016System Entry12/22/2016
ITC-T/C-20161220-00371Transfer of ControlConsolidated Communications Holdings, Inc.12/20/2016System Entry12/22/2016
ITC-T/C-20161220-00372Transfer of ControlConsolidated Communications Holdings, Inc.12/20/2016System Entry12/22/2016
ITC-T/C-20161220-00373Transfer of ControlConsolidated Communications Holdings, Inc.12/20/2016System Entry12/22/2016
ITC-T/C-20161220-00374Transfer of ControlConsolidated Communications Holdings, Inc.12/20/2016System Entry12/22/2016
ITC-T/C-20161220-00375Transfer of ControlConsolidated Communications Holdings, Inc.12/20/2016System Entry12/22/2016
ITC-T/C-20161220-00376Transfer of ControlConsolidated Communications Holdings, Inc.12/20/2016System Entry12/22/2016
ITC-T/C-20161220-00377Transfer of ControlAmalgamated Telecom Holdings Limited12/20/2016System Entry12/22/2016
ITC-T/C-20170210-00015Transfer of ControlTeleGuam Holdings, LLC02/10/2017System Entry02/13/2017
ITC-T/C-20170302-00027Transfer of ControlLUMOS NETWORKS OPERATING COMPANY03/02/2017Accepted for Filing Public Notice04/21/2017
ITC-T/C-20170306-00029Transfer of ControlPrime Time Ventures, LLC03/06/2017System Entry03/13/2017
ITC-T/C-20170324-00051Transfer of ControlBenchmark Communications, LLC d/b/a Com One03/24/2017Accepted for Filing Public Notice04/21/2017
ITC-T/C-20170324-00052Transfer of ControlHunt Telecommunications, LLC03/24/2017Accepted for Filing Public Notice04/21/2017
ITC-T/C-20170328-00057Transfer of ControlTelxius Cable USA, Inc.03/28/2017Accepted for Filing Public Notice04/21/2017
ITC-T/C-20170328-00058Transfer of ControlTelxius Cable Puerto Rico, Inc.03/28/2017Accepted for Filing Public Notice04/21/2017
ITC-T/C-20170405-00060Transfer of ControlJail Education Solutions, Inc. dba Edovo04/05/2017Unblocked04/25/2017
ITC-T/C-20170407-00061Transfer of ControlACME Communications Inc.04/07/2017System Entry04/11/2017

Pre-Defined Reports
International Telecommunications | Satellite Earth Stations | Satellite Space Stations | International HF Broadcast Stations and Public Fixed Radio Stations | General Reports

General Reports
  • Public Notice Search
  • Condition and Provision Text Listing by Code Number
  • Condition and Provision Text Listing for a Given Condition Code and/or Subsystem
  • International Section 214s Authorized Prior to March 1996
  • Application Status - Search by Old File Number

  • Advanced Search | Pre-Defined Reports | MyIBFS Home

    International Telecommunications
  • Accounting Rate Current Authorization Listing by Administration
  • Accounting Rate Current Authorization Listing by Carrier
  • Accounting Rate Pending Listing by Administration
  • Accounting Rate Pending Listing by Carrier
  • Accounting Rate Report Query
  • All Cases Not on A.F.F.P.N.
  • Data Network Code Pending Application List
  • Foreign Carrier Affiliation Notification Pending Application List
  • International Special Projects Pending Application List
  • International Section 214 Current Authorizations List
  • International Section 214 Pending Application List
  • ISPC Assignment Listing
  • ISPC Assignment Listing for a Given State
  • ISPC Pending Application List
  • Recognized Operating Agency Pending Application List
  • Submarine Cable Landing Pending Application List


  • Advanced Search | Pre-Defined Reports | MyIBFS Home

    Satellite Earth Stations
  • Current Authorization List by Callsign
  • Current Authorization List by Licensee
  • Current Authorization List by State and City
  • List of File Numbers for a Given Call Sign
  • Pending Application List
  • Application Status - Search by File Number
  • Grandfathered FSS Earth Stations


  • Advanced Search | Pre-Defined Reports | MyIBFS Home

    Satellite Space Stations
  • Current Authorization by Callsign
  • Current Authorizations by Licensee
  • Current Authorizations by File Number
  • Pending Application List
  • Q Report
  • New!Search for Recent Actions Taken on SAT Applications.
  • New! Search for Space Station Bond.


  • Advanced Search | Pre-Defined Reports | MyIBFS Home

    International HF Broadcast Stations and Public Fixed Radio Stations
  • 325-C Pending Application List
  • IHF Current Authorizations by Expiration Due Date
  • IHF Current Authorizations by File Number
  • IHF Pending Application List
  • IPF Current Authorizations by Callsign
  • IPF Current Authorizations by File Number
  • IPF Pending Application List

  • FCC - Federal Communications Commission - IBFS Internet Reports - Thu Apr 27 14:38:20 US/Eastern 2017